Погода в Бахареве

Россия / Тамбовская область     52°12′27″N   41°38′14″E
темп.,
°C
ветер,
м/с
пор.,
м/с
влажн.,
%
обл.,
%
осадки,
мм/ч
давл.,
гПа
погр.,
м
1 июля, пт
пт100:00+13сз37814 0.0 1013114
03:00+12сз46891 0.0 101398
06:00+14сз49775 0.0 1011229
09:00+18ссз7106092 0.0 1011918
12:00+17ссв9105960 0.7 10121811
15:00+16ссв9104564 0.9 10142388
18:00+13ссв796687 0.1 10151168
21:00+10с712755 0.3 1017802
2 июля, сб
сб200:00+8с61276100 0.1 1017531
03:00+9с8178369 2.5 1015636
06:00+11с817850 0.0 1015568
09:00+17ссв10156644 0.0 10151261
12:00+20ссв11145232 0.0 10151955
15:00+22ссв913496 0.0 10152209
18:00+20ссв611545 0.0 10141106
21:00+14с33720 0.0 101640
3 июля, вс
вс300:00+13ссз46800 0.0 101590
03:00+12ссз410815 0.0 1014157
06:00+15сз5127648 0.0 1013295
09:00+19с3870100 0.0 1014527
12:00+24ссз574984 0.0 10131602
15:00+22ссв486188 0.1 1012261
18:00+23с136361 0.0 1012384
21:00+17всв34780 0.0 101440
4 июля, пн
пн400:00+15ссв34910 0.0 101452
03:00+14ссв379467 0.0 1015123
06:00+15ссв48880 0.0 1016248
09:00+20св576399 0.0 10171019
12:00+23св57485 0.0 10171752
15:00+24св454210 0.0 10172234
18:00+24св24485 0.0 10171872
21:00+20зсз225098 0.0 101824
5 июля, вт
вт500:00+19ссз2257100 0.0 101829
03:00+18ссз3364100 0.0 101858
06:00+18ссз236992 0.0 101988
09:00+21сз3463100 0.0 1020404
12:00+25сз344958 0.0 10191368
15:00+26сз334656 0.0 10181566
18:00+25зсз125285 0.0 1018623
21:00+21з226158 0.0 101813